FW6055 Weather Reports


time (UTC)temp
C
wind
direction
speed
KPH
gust
KPH
rain 1hr
cm
rain 24hr
cm
rain mn
cm
humidity
%
barometer
mb
20260508220420 17 191 4.8 6.4 0.00 0.00 0.00 57 1007.1
20260508215916 17 173 3.2 3.2 0.00 0.00 0.00 56 1007.1
20260508215413 17 186 3.2 4.8 0.00 0.00 0.00 54 1007.1
20260508214909 17 206 4.8 4.8 0.00 0.00 0.00 53 1007.1
20260508214407 17 256 1.6 1.6 0.00 0.00 0.00 58 1007.1
20260508213903 17 182 1.6 1.6 0.00 0.00 0.00 53 1007.1
20260508213401 18 200 6.4 6.4 0.00 0.00 0.00 43 1007.4
20260508212856 18 244 3.2 4.8 0.00 0.00 0.00 44 1007.4
20260508212353 18 196 1.6 1.6 0.00 0.00 0.00 43 1007.4
20260508211849 19 278 9.7 11.3 0.00 0.00 0.00 43 1007.1
20260508211344 19 188 1.6 1.6 0.00 0.00 0.00 43 1007.4
20260508210842 19 202 3.2 3.2 0.00 0.00 0.00 46 1007.4
20260508210339 19 192 3.2 3.2 0.00 0.00 0.00 46 1007.4
20260508205835 18 215 1.6 3.2 0.00 0.00 0.00 45 1007.7
20260508205332 18 306 8.0 11.3 0.00 0.00 0.00 47 1007.4
20260508204828 18 210 6.4 11.3 0.00 0.00 0.00 45 1007.4
20260508204325 20 217 1.6 3.2 0.00 0.00 0.00 45 1007.7
20260508203821 19 185 3.2 4.8 0.00 0.00 0.00 43 1007.4
20260508203318 18 240 1.6 3.2 0.00 0.00 0.00 43 1007.7
20260508202813 18 194 4.8 9.7 0.00 0.00 0.00 43 1007.7
20260508202311 19 191 6.4 12.9 0.00 0.00 0.00 41 1008.1
20260508201808 19 189 6.4 11.3 0.00 0.00 0.00 41 1007.7
20260508201305 18 261 3.2 4.8 0.00 0.00 0.00 41 1008.1
20260508200801 19 238 4.8 4.8 0.00 0.00 0.00 40 1008.4
20260508200257 19 273 3.2 6.4 0.00 0.00 0.00 42 1008.4
20260508195754 19 209 3.2 3.2 0.00 0.00 0.00 39 1008.1
20260508195250 17 210 3.2 4.8 0.00 0.00 0.00 42 1008.4
20260508194747 18 161 6.4 9.7 0.00 0.00 0.00 40 1008.8
20260508194244 18 273 8.0 11.3 0.00 0.00 0.00 41 1008.4
20260508193741 18 213 1.6 3.2 0.00 0.00 0.00 43 1008.8
20260508193238 18 224 4.8 4.8 0.00 0.00 0.00 40 1008.8
20260508192734 18 288 6.4 11.3 0.00 0.00 0.00 41 1008.8
20260508192231 18 187 1.6 1.6 0.00 0.00 0.00 43 1008.8
20260508191729 18 275 4.8 4.8 0.00 0.00 0.00 42 1009.1
20260508191225 18 180 0.0 1.6 0.00 0.00 0.00 42 1009.4
20260508190723 18 248 6.4 6.4 0.00 0.00 0.00 42 1009.1
20260508190218 18 183 1.6 1.6 0.00 0.00 0.00 43 1009.1
20260508185715 18 218 4.8 9.7 0.00 0.00 0.00 42 1009.4
20260508185213 18 200 1.6 3.2 0.00 0.00 0.00 42 1009.4
20260508184710 18 222 4.8 4.8 0.00 0.00 0.00 43 1009.4
20260508184207 17 155 0.0 1.6 0.00 0.00 0.00 43 1009.8
20260508183704 17 282 4.8 6.4 0.00 0.00 0.00 44 1009.4
20260508183200 18 262 4.8 6.4 0.00 0.00 0.00 42 1009.8
20260508182656 18 186 0.0 0.0 0.00 0.00 0.00 39 1009.4
20260508182153 18 182 4.8 4.8 0.00 0.00 0.00 39 1009.4
20260508181649 18 169 0.0 1.6 0.00 0.00 0.00 38 1009.8
20260508181146 18 233 1.6 3.2 0.00 0.00 0.00 38 1009.4
20260508180642 17 182 1.6 3.2 0.00 0.00 0.00 40 1009.8
20260508180139 17 264 4.8 4.8 0.00 0.00 0.00 42 1009.8
20260508175636 17 261 6.4 9.7 0.00 0.00 0.00 40 1009.8
20260508175132 17 231 1.6 3.2 0.00 0.00 0.00 41 1010.1
20260508174630 18 186 1.6 1.6 0.00 0.00 0.00 41 1010.1
20260508174127 17 180 0.0 0.0 0.00 0.00 0.00 42 1010.5
20260508173624 17 290 3.2 4.8 0.00 0.00 0.00 43 1010.5
20260508173120 17 272 4.8 4.8 0.00 0.00 0.00 42 1010.5
20260508172617 16 161 0.0 0.0 0.00 0.00 0.00 46 1010.5
20260508172113 16 183 3.2 3.2 0.00 0.00 0.00 45 1010.9
20260508171610 16 183 0.0 1.6 0.00 0.00 0.00 44 1010.5
20260508171107 16 232 4.8 6.4 0.00 0.00 0.00 46 1010.9
20260508170604 16 193 6.4 6.4 0.00 0.00 0.00 44 1010.9
20260508165558 16 189 1.6 3.2 0.00 0.00 0.00 45 1011.2
20260508165055 16 180 1.6 1.6 0.00 0.00 0.00 46 1011.2
20260508164551 16 85 1.6 1.6 0.00 0.00 0.00 45 1011.2
20260508164048 16 269 8.0 9.7 0.00 0.00 0.00 46 1011.2
20260508163546 15 189 3.2 4.8 0.00 0.00 0.00 46 1011.6
20260508163042 15 188 0.0 1.6 0.00 0.00 0.00 47 1011.6
20260508162539 15 127 3.2 3.2 0.00 0.00 0.00 45 1011.6
20260508162037 15 180 1.6 1.6 0.00 0.00 0.00 50 1011.6
20260508161533 15 226 1.6 3.2 0.00 0.00 0.00 49 1011.9
20260508161030 15 56 3.2 4.8 0.00 0.00 0.00 48 1011.6
20260508160529 15 220 4.8 4.8 0.00 0.00 0.00 47 1011.9
20260508160026 15 5 3.2 4.8 0.00 0.00 0.00 49 1011.6
20260508155522 15 207 3.2 3.2 0.00 0.00 0.00 48 1011.9
20260508155020 15 205 4.8 4.8 0.00 0.00 0.00 47 1011.9
20260508154517 14 198 3.2 3.2 0.00 0.00 0.00 51 1011.9
20260508154013 15 184 0.0 1.6 0.00 0.00 0.00 49 1011.9
20260508153510 15 182 0.0 0.0 0.00 0.00 0.00 53 1011.9
20260508153007 14 175 3.2 4.8 0.00 0.00 0.00 49 1011.9
20260508152504 14 229 3.2 4.8 0.00 0.00 0.00 50 1011.9
20260508151959 14 148 1.6 1.6 0.00 0.00 0.00 51 1011.9
20260508151456 13 196 1.6 3.2 0.00 0.00 0.00 51 1011.9
20260508150953 13 152 0.0 0.0 0.00 0.00 0.00 51 1012.3
20260508150450 13 116 1.6 1.6 0.00 0.00 0.00 52 1012.3
20260508145945 13 154 0.0 1.6 0.00 0.00 0.00 54 1012.3
20260508145442 13 194 8.0 9.7 0.00 0.00 0.00 54 1012.3
20260508144939 13 193 0.0 0.0 0.00 0.00 0.00 54 1012.3
20260508144436 13 180 1.6 1.6 0.00 0.00 0.00 51 1012.3
20260508143934 13 215 1.6 1.6 0.00 0.00 0.00 56 1012.6
20260508143431 12 176 0.0 0.0 0.00 0.00 0.00 54 1012.3
20260508142927 12 184 3.2 3.2 0.00 0.00 0.00 61 1012.6
20260508142425 12 163 0.0 0.0 0.00 0.00 0.00 61 1012.3
20260508141921 12 170 1.6 1.6 0.00 0.00 0.00 62 1012.6
20260508141418 12 165 0.0 0.0 0.00 0.00 0.00 63 1012.6
20260508140915 12 179 0.0 0.0 0.00 0.00 0.00 62 1012.6
20260508140412 12 152 0.0 0.0 0.00 0.00 0.00 65 1012.6
20260508135908 12 169 1.6 3.2 0.00 0.00 0.00 64 1012.6
20260508135405 12 162 0.0 1.6 0.00 0.00 0.00 65 1012.6
20260508134901 12 183 0.0 0.0 0.00 0.00 0.00 67 1012.6
20260508134358 11 202 0.0 1.6 0.00 0.00 0.00 67 1012.6
20260508133854 11 173 0.0 0.0 0.00 0.00 0.00 70 1012.6
20260508133352 11 224 0.0 0.0 0.00 0.00 0.00 71 1012.6
20260508132849 10 192 0.0 0.0 0.00 0.00 0.00 72 1012.9
20260508132347 10 193 0.0 1.6 0.00 0.00 0.00 74 1012.6
20260508131843 10 190 0.0 0.0 0.00 0.00 0.00 74 1012.6
20260508131339 10 192 0.0 0.0 0.00 0.00 0.00 74 1012.6
20260508130836 10 191 0.0 0.0 0.00 0.00 0.00 74 1012.6
20260508130332 10 176 0.0 0.0 0.00 0.00 0.00 75 1012.6
20260508125829 10 189 1.6 1.6 0.00 0.00 0.00 76 1012.6
20260508125325 10 195 1.6 1.6 0.00 0.00 0.00 75 1012.9
20260508124823 10 180 0.0 0.0 0.00 0.00 0.00 76 1012.6
20260508124320 10 182 0.0 0.0 0.00 0.00 0.00 77 1012.6
20260508123818 9 190 0.0 0.0 0.00 0.00 0.00 78 1012.6
20260508123316 10 188 0.0 0.0 0.00 0.00 0.00 79 1012.6
20260508122812 9 183 0.0 0.0 0.00 0.00 0.00 79 1012.6
20260508122309 9 202 3.2 4.8 0.00 0.00 0.00 80 1012.6
20260508121806 9 191 0.0 0.0 0.00 0.00 0.00 79 1012.6
20260508121305 9 190 0.0 0.0 0.00 0.00 0.00 80 1012.6
20260508120802 8 190 0.0 0.0 0.00 0.00 0.00 85 1012.3
20260508120300 7 190 0.0 0.0 0.00 0.00 0.00 87 1012.3
20260508115757 7 190 0.0 0.0 0.00 0.00 0.00 90 1012.3
20260508115254 7 190 0.0 0.0 0.00 0.00 0.00 93 1012.3
20260508114750 6 190 0.0 0.0 0.00 0.00 0.00 94 1012.3
20260508114247 6 190 0.0 0.0 0.00 0.00 0.00 94 1012.3
20260508113744 6 190 0.0 0.0 0.00 0.00 0.00 94 1012.3
20260508113243 5 190 0.0 0.0 0.00 0.00 0.00 94 1011.9
20260508112738 5 190 0.0 0.0 0.00 0.00 0.00 94 1011.9
20260508112235 5 190 0.0 0.0 0.00 0.00 0.00 94 1012.3
20260508111731 5 190 0.0 0.0 0.00 0.00 0.00 94 1011.9
20260508111230 5 190 0.0 0.0 0.00 0.00 0.00 94 1011.6
20260508110726 5 190 0.0 0.0 0.00 0.00 0.00 94 1011.9
20260508110223 5 190 0.0 0.0 0.00 0.00 0.00 94 1011.9
20260508105718 4 190 0.0 0.0 0.00 0.00 0.00 94 1011.9
20260508105215 4 190 0.0 0.0 0.00 0.00 0.00 94 1011.6
20260508104712 4 190 0.0 0.0 0.00 0.00 0.00 93 1011.6
20260508104209 4 190 0.0 0.0 0.00 0.00 0.00 93 1011.9
20260508103706 4 190 0.0 0.0 0.00 0.00 0.00 93 1011.6
20260508103203 4 190 0.0 0.0 0.00 0.00 0.00 93 1011.6
20260508102700 4 190 0.0 0.0 0.00 0.00 0.00 93 1011.6
20260508102158 5 190 0.0 0.0 0.00 0.00 0.00 93 1011.6
20260508101655 5 190 0.0 0.0 0.00 0.00 0.00 92 1011.6
20260508101153 5 190 0.0 0.0 0.00 0.00 0.00 92 1011.6
20260508100650 5 190 0.0 0.0 0.00 0.00 0.00 92 1011.6
20260508100148 5 190 0.0 0.0 0.00 0.00 0.00 92 1011.2
20260508095644 5 190 0.0 0.0 0.00 0.00 0.00 92 1011.6
20260508095142 5 190 0.0 0.0 0.00 0.00 0.00 92 1011.6
20260508094638 5 190 0.0 0.0 0.00 0.00 0.00 91 1011.6
20260508094135 5 190 0.0 0.0 0.00 0.00 0.00 91 1011.6
20260508093633 5 190 0.0 0.0 0.00 0.00 0.00 91 1011.9
20260508093130 5 190 0.0 0.0 0.00 0.00 0.00 91 1011.9
20260508092627 5 190 0.0 0.0 0.00 0.00 0.00 91 1011.6
20260508092126 5 190 0.0 0.0 0.00 0.00 0.00 91 1011.2
20260508091622 5 190 0.0 0.0 0.00 0.00 0.00 90 1011.6
20260508091120 6 190 0.0 0.0 0.00 0.00 0.00 90 1011.6
20260508090618 6 190 0.0 0.0 0.00 0.00 0.00 89 1011.9
20260508090114 6 190 0.0 0.0 0.00 0.00 0.00 89 1011.6
20260508085610 6 190 0.0 0.0 0.00 0.00 0.00 89 1011.6
20260508085108 6 190 0.0 0.0 0.00 0.00 0.00 89 1011.6
20260508084604 6 190 0.0 0.0 0.00 0.00 0.00 88 1011.6
20260508084102 6 190 0.0 0.0 0.00 0.00 0.00 88 1011.6
20260508083559 6 190 0.0 0.0 0.00 0.00 0.00 88 1011.6
20260508083056 6 190 0.0 0.0 0.00 0.00 0.00 87 1011.9
20260508082551 6 190 0.0 0.0 0.00 0.00 0.00 87 1011.9
20260508082049 6 190 0.0 0.0 0.00 0.00 0.00 87 1011.9
20260508081547 6 190 0.0 0.0 0.00 0.00 0.00 86 1011.9
20260508081042 6 190 0.0 0.0 0.00 0.00 0.00 86 1011.9
20260508080540 7 190 0.0 0.0 0.00 0.00 0.00 85 1011.9
20260508080038 7 190 0.0 0.0 0.00 0.00 0.00 84 1011.6
20260508075534 7 190 0.0 0.0 0.00 0.00 0.00 83 1011.6
20260508075032 7 190 0.0 0.0 0.00 0.00 0.00 83 1011.6
20260508074529 7 190 0.0 0.0 0.00 0.00 0.00 83 1011.9
20260508074026 7 190 0.0 0.0 0.00 0.00 0.00 83 1012.3
20260508073523 7 190 0.0 0.0 0.00 0.00 0.00 85 1011.9
20260508073021 7 190 0.0 0.0 0.00 0.00 0.00 85 1012.3
20260508072516 7 190 0.0 0.0 0.00 0.00 0.00 85 1012.3
20260508072014 7 190 0.0 0.0 0.00 0.00 0.00 85 1012.3
20260508071511 7 190 0.0 0.0 0.00 0.00 0.00 85 1011.9
20260508071009 7 190 0.0 0.0 0.00 0.00 0.00 85 1011.9
20260508070506 7 190 0.0 0.0 0.00 0.00 0.00 85 1011.9
20260508070005 7 190 0.0 0.0 0.00 0.00 0.00 84 1011.9
20260508065502 7 190 0.0 0.0 0.00 0.00 0.00 84 1011.9
20260508065000 7 190 0.0 0.0 0.00 0.00 0.00 84 1011.9
20260508064457 7 190 0.0 0.0 0.00 0.00 0.00 84 1011.9
20260508063955 7 190 0.0 0.0 0.00 0.00 0.00 84 1012.3
20260508063452 7 190 0.0 0.0 0.00 0.00 0.00 84 1011.9
20260508062950 6 190 0.0 0.0 0.00 0.00 0.00 84 1011.9
20260508062447 7 190 0.0 0.0 0.00 0.00 0.00 84 1012.3
20260508061944 7 190 0.0 0.0 0.00 0.00 0.00 83 1011.9
20260508061442 7 190 0.0 0.0 0.00 0.00 0.00 83 1011.9
20260508060938 7 190 0.0 0.0 0.00 0.00 0.00 83 1011.9
20260508060435 7 190 0.0 0.0 0.00 0.00 0.00 82 1011.9
20260508055931 7 190 0.0 0.0 0.00 0.00 0.00 82 1011.9
20260508055428 7 190 0.0 0.0 0.00 0.00 0.00 81 1012.3
20260508054924 7 190 0.0 0.0 0.00 0.00 0.00 81 1012.3
20260508054422 7 190 0.0 0.0 0.00 0.00 0.00 81 1012.3
20260508053919 7 190 0.0 0.0 0.00 0.00 0.00 80 1012.3
20260508053415 7 190 0.0 0.0 0.00 0.00 0.00 80 1011.9
20260508052913 7 190 0.0 0.0 0.00 0.00 0.00 79 1012.3
20260508052411 7 190 0.0 0.0 0.00 0.00 0.00 78 1012.3
20260508051906 8 190 0.0 0.0 0.00 0.00 0.00 77 1012.6
20260508051403 8 190 0.0 0.0 0.00 0.00 0.00 77 1012.3
20260508050858 8 190 0.0 0.0 0.00 0.00 0.00 76 1011.9
20260508050356 8 190 0.0 0.0 0.00 0.00 0.00 75 1012.3
20260508045851 8 190 0.0 0.0 0.00 0.00 0.00 74 1012.3
20260508045350 8 190 0.0 0.0 0.00 0.00 0.00 73 1012.6
20260508044847 9 190 0.0 0.0 0.00 0.00 0.00 71 1011.9
20260508044343 10 190 0.0 0.0 0.00 0.00 0.00 70 1012.3
20260508043839 10 191 0.0 0.0 0.00 0.00 0.00 68 1012.3
20260508043337 10 193 0.0 0.0 0.00 0.00 0.00 68 1012.3
20260508042833 10 190 0.0 0.0 0.00 0.00 0.00 68 1012.3
20260508042331 10 190 0.0 0.0 0.00 0.00 0.00 67 1012.3
20260508041828 10 190 1.6 1.6 0.00 0.00 0.00 67 1012.3
20260508041324 10 190 0.0 0.0 0.00 0.00 0.00 66 1012.3
20260508040820 10 189 0.0 0.0 0.00 0.00 0.00 66 1012.3
20260508040318 10 189 0.0 0.0 0.00 0.00 0.00 65 1011.9
20260508035815 10 189 0.0 0.0 0.00 0.00 0.00 64 1011.9
20260508035313 10 188 0.0 0.0 0.00 0.00 0.00 64 1011.9
20260508034809 10 188 0.0 0.0 0.00 0.00 0.00 63 1012.3
20260508034306 10 189 0.0 0.0 0.00 0.00 0.00 62 1011.9
20260508033803 10 190 0.0 0.0 0.00 0.00 0.00 62 1011.9
20260508033302 10 190 0.0 0.0 0.00 0.00 0.00 61 1011.9
20260508032759 11 189 0.0 0.0 0.00 0.00 0.00 61 1012.3
20260508032256 11 188 0.0 0.0 0.00 0.00 0.00 60 1011.9
20260508031752 11 189 0.0 0.0 0.00 0.00 0.00 59 1012.3
20260508031249 11 189 0.0 0.0 0.00 0.00 0.00 60 1012.3
20260508030745 11 187 0.0 0.0 0.00 0.00 0.00 59 1012.6
20260508030243 11 187 0.0 0.0 0.00 0.00 0.00 59 1012.6
20260508025739 11 196 0.0 0.0 0.00 0.00 0.00 58 1012.6
20260508025236 11 186 0.0 0.0 0.00 0.00 0.00 58 1012.6
20260508024732 11 185 0.0 0.0 0.00 0.00 0.00 58 1012.6
20260508024229 11 189 0.0 0.0 0.00 0.00 0.00 58 1012.3
20260508023726 11 182 0.0 0.0 0.00 0.00 0.00 57 1012.6
20260508023224 11 204 1.6 3.2 0.00 0.00 0.00 57 1012.3
20260508022719 11 265 4.8 6.4 0.00 0.00 0.00 55 1012.6
20260508022216 11 206 3.2 3.2 0.00 0.00 0.00 55 1012.3
20260508021713 11 278 6.4 6.4 0.00 0.00 0.00 57 1012.3
20260508021208 11 194 3.2 3.2 0.00 0.00 0.00 54 1012.6
20260508020706 12 273 4.8 4.8 0.00 0.00 0.00 52 1012.6
20260508020203 12 200 1.6 1.6 0.00 0.00 0.00 52 1012.3
20260508015700 11 200 1.6 1.6 0.00 0.00 0.00 51 1012.3
20260508015157 11 259 3.2 4.8 0.00 0.00 0.00 53 1012.3
20260508014654 11 200 4.8 4.8 0.00 0.00 0.00 52 1012.3
20260508014150 11 187 0.0 0.0 0.00 0.00 0.00 54 1012.3
20260508013646 11 183 0.0 1.6 0.00 0.00 0.00 55 1012.3
20260508013143 11 183 0.0 1.6 0.00 0.00 0.00 53 1012.3
20260508012641 11 183 0.0 0.0 0.00 0.00 0.00 53 1011.9
20260508012137 11 182 0.0 0.0 0.00 0.00 0.00 52 1011.9
20260508011636 11 182 0.0 0.0 0.00 0.00 0.00 52 1011.9
20260508011133 11 182 0.0 0.0 0.00 0.00 0.00 51 1011.6
20260508010629 11 183 0.0 0.0 0.00 0.00 0.00 50 1011.2
20260508010128 11 188 0.0 0.0 0.00 0.00 0.00 50 1011.2
20260508005624 11 197 1.6 1.6 0.00 0.00 0.00 49 1011.2
20260508005120 12 182 0.0 0.0 0.00 0.00 0.00 49 1011.6
20260508004616 12 168 1.6 3.2 0.00 0.00 0.00 48 1011.9
20260508004113 12 227 3.2 3.2 0.00 0.00 0.00 47 1011.6
20260508003610 12 238 4.8 4.8 0.00 0.00 0.00 46 1011.2
20260508003108 12 241 6.4 9.7 0.00 0.00 0.00 45 1011.6
20260508002603 12 198 1.6 3.2 0.00 0.00 0.00 46 1011.2
20260508002101 12 289 6.4 9.7 0.00 0.00 0.00 46 1011.6
20260508001556 12 191 1.6 1.6 0.00 0.00 0.00 46 1011.2
20260508001053 12 211 1.6 3.2 0.00 0.00 0.00 46 1011.6
20260508000549 12 193 0.0 1.6 0.00 0.00 0.00 45 1011.2
20260508000047 12 180 1.6 3.2 0.00 0.00 0.00 46 1011.2
20260507235543 12 213 3.2 3.2 0.00 0.00 0.00 45 1011.2
20260507235041 13 302 6.4 9.7 0.00 0.00 0.00 45 1011.2
20260507234537 13 208 0.0 3.2 0.00 0.00 0.00 45 1011.2
20260507234033 12 193 1.6 1.6 0.00 0.00 0.00 44 1011.2
20260507233530 12 189 0.0 1.6 0.00 0.00 0.00 44 1011.2
20260507233029 12 185 1.6 1.6 0.00 0.00 0.00 45 1011.6
20260507232524 12 213 3.2 3.2 0.00 0.00 0.00 44 1011.2
20260507232022 13 182 0.0 0.0 0.00 0.00 0.00 44 1011.6
20260507231518 13 249 4.8 4.8 0.00 0.00 0.00 43 1011.2
20260507231016 13 216 3.2 4.8 0.00 0.00 0.00 42 1011.2
20260507230512 13 178 0.0 0.0 0.00 0.00 0.00 44 1011.2
20260507230009 13 236 3.2 3.2 0.00 0.00 0.00 43 1011.6
20260507225504 13 244 3.2 3.2 0.00 0.00 0.00 42 1011.2
20260507225000 13 216 3.2 3.2 0.00 0.00 0.00 41 1011.2
20260507224456 13 315 4.8 6.4 0.00 0.00 0.00 42 1011.6
20260507223953 13 44 4.8 6.4 0.00 0.00 0.00 42 1011.6
20260507223449 13 223 1.6 3.2 0.00 0.00 0.00 42 1011.2
20260507222946 13 207 3.2 6.4 0.00 0.00 0.00 41 1011.6
20260507222443 13 286 6.4 9.7 0.00 0.00 0.00 42 1011.6
20260507221940 13 185 1.6 1.6 0.00 0.00 0.00 43 1011.6
20260507221436 13 294 6.4 9.7 0.00 0.00 0.00 42 1012.3
20260507220933 13 198 3.2 4.8 0.00 0.00 0.00 42 1011.6